Погода в Павлодаре

Погода в Павлодаре : погода сейчас, прогноз погоды и архив. Всё, что Вы хотите узнать о погоде в Павлодаре!

Поиск расширенной информации на нашем сайте:

Полезная информация:

Другие новости

Новости СМИ2

Главная страница сайта

Новости сайта

03.07.2017

Напоминаем, что на нашем специализированном сайте Метеоцентр.Азия вы можете получить высокодетализированные автоматические прогнозы погоды по пунктам России, СНГ и мира в авиационном формате (включающие направление и скорость ветра, видимость, явления погоды, количество и форму облачности, нижнюю и верхнюю границу облачности).

Рекомендуем:

Погода в Павлодаре - сегодня

Время (UTC), дата Ветер
(°,м/с) 
Видим.   Явления Облачность Т
(°С)
Тd
(°С)
f(%) Тe
(°С)
Pmin
(гПа)
dP
(гПа)
Po
(мм)
O2
(г/м3)
Тmin Tmax R s Состояние
почвы
12 15.07.19 100 (В) 20000 м    ясно 
+31.2 +9.6 26 +32  1008.9  -0.6  747  268           
15 15.07.19 050 (СВ) 20000 м    ясно 
+26 +9.8 36 +27  1009.4  0.2  747  273    +32.4       
18 15.07.19 070 (В) 20000 м    ясно 
+21.3 +10.6 50 +23  1009.9  0.3  747  277    +32.4       
21 15.07.19 тихо ()   20000 м    ясно 
+16 +11.6 75 +19  1009.7  -0.5  747  282           
00 16.07.19 тихо ()   20000 м    1/0 верхняя 
[Ci fib]
+15.9 +12.3 79 +20  1009.6  -0.1  747  282           
03 16.07.19 040 (СВ) 20000 м    1/0 верхняя 
[Ci fib]
+24.3 +12.1 46 +28  1009.4  0.2  747  274           
06 16.07.19 060 (СВ) 20000 м    4/3 1000 м верхняя 
[Cu hum|Ci fib]
+27.3 +9.3 32 +28  1008.4  -0.9  746  272  +14.1         
09 16.07.19 350 (С) 20000 м    3/0 верхняя 
[Ci fib]
+29 +7.7 26 +29  1007.2  -1  745  270           
12 16.07.19 300 (СЗ) 20000 м    1/0 верхняя 
[Ci fib]
+28.9 +12.2 36 +33  1006.3  -0.9  745  269           
15 16.07.19 тихо ()   20000 м    1/0 верхняя 
[Ci fib]
+24.7 +13.1 48 +30  1005.9  -0.6  744  272    +29.9       
18 16.07.19 170 (Ю) 20000 м    ясно 
+19.2 +13.2 68 +27  1005.5  -0.7  744  277    +29.9       
21 16.07.19 180 (Ю) 20000 м    ясно 
+17.3 +13.1 76 +25  1005  -0.5  743  279           
00 17.07.19 тихо ()   20000 м    ясно 
+15.6 +12.3 81 +20  1005.4  0.3  744  281           
03 17.07.19 340 (С) 20000 м    9/3 1000 м кучево-дожд., средняя, верхняя 
[Cb cap|Ac trans|Ci fib]
+26.1 +12.3 42 +31  1005.6  0.7  744  271           
06 17.07.19 280 (З) 20000 м  в посл. час ливневой дождь  9/6 600 м кучево-дожд., средняя 
[Cb cap|Ac trans]
+28.7 +14.4 42 +37  1004.8  -0.7  744  268  +14.2         
09 17.07.19 240 (ЮЗ) 20000 м    8/3 600 м кучево-дожд., средняя, верхняя 
[Cb calv|Ac trans|Ci fib]
+34 +10.4 24 +36  1003.1  -1.5  742  264           
12 17.07.19 310 (СЗ) 20000 м    6/3 1000 м кучево-дожд., верхняя 
[Cb calv|Ci fib]
+33 +14.8 33 +42  1002.5  -0.6  742  264           
15 17.07.19 320 (СЗ) 20000 м    8/3 1000 м кучево-дожд., средняя, верхняя 
[Cb calv|Ac trans|Ci fib]
+27.1 +15.5 49 +37  1004.2  1.4  743  269    +34.3  0.0     
18 17.07.19 030 (СВ) 20000 м    8/0 верхняя 
[Cs]
+22.5 +15.7 65 +33  1005.9  1.5  744  274    +34.3  0.0     
21 17.07.19 340 (С) 20000 м    8/5 600 м средняя 
[Sc|Ac trans]
+20.5 +15.7 74 +31  1007.9  1.9  746  276           
00 18.07.19 350 (С) 20000 м    ясно 
+18.8 +16.7 88 +32  1009  746  278           
03 18.07.19 320 (СЗ) 20000 м    1/1 1000 м 
[Cu hum]
+23.5 +18.1 72 +38  1009.7  0.9  747  273           
06 18.07.19 330 (СЗ) 20000 м    8/8 1000 м кучево-дожд., средняя 
[Cb cap|Ac trans]
+27.3 +15.8 49 +38  1009.6  747  270  +18.2         
09 18.07.19 320 (СЗ) 20000 м    8/6 1000 м кучево-дожд., средняя 
[Cb cap|Ac trans]
+29.1 +16.1 45 +40  1008.8  -0.7  746  268           
12 18.07.19 040 (СВ) 20000 м    9/6 1000 м кучево-дожд., верхняя 
[Cb cap|Ci fib]
+27.9 +16 48 +38  1009  0.2  747  270           
Время (UTC), дата Ветер
(°,м/с) 
Видим.   Явления Облачность Т
(°С)
Тd
(°С)
f(%) Тe
(°С)
Pmin
(гПа)
dP
(гПа)
Po
(мм)
O2
(г/м3)
Тmin Tmax R s Состояние
почвы

Для получения пояснительной информации подведите курсор к названию столбца.

ПОГОДА в Павлодаре - архив

Всё, что Вы хотите узнать о погоде в Павлодаре - удобно и подробно!

Выберите нужную дату (начиная с 1 января 2018* года) и нажмите кнопку "Найти".
Будут отображены архивные сводки погоды по пункту Павлодар, начиная с указанной даты.


Отображать данные в формате CSV (для использования в таблицах Excel)


Внимание! Наш архив погоды предназначен исключительно для личного некоммерческого использования в познавательных целях. Если Вам необходимы официальные справки о состоянии погоды (для производственных, юридических, коммерческих и т.п. целей), обращайтесь в органы Росгидромета.

*Примечание: данная дата относится к архиву по метеостанциям СССР (Россия, СНГ, Балтия).
Архив по метеостанциям Зарубежной Европы и Азии (кроме Китая) хранится 10 дней, по другим регионам земного шара (Китай, Африка, Америка, Австралия, Океания) - 1 день.

Павлодар - район местоположения метеостанции


Название, широта, долгота, высота метеостанции:
Павлодар 52.1°ш. 77.1°д. 125 м над ур. моря [Казахстан]

Дополнительная информация

В oтличие oт бoльшинства пoгoдных сайтoв мы публикуем пoдрoбную метеoинфoрмацию в детальнoм прoфессиoнальнoм фoрмате.

Характеристики температуры и влажнoсти вoздуха измеряются на высoте 2 м в тени вдали oт зданий и деревьев.
Скoрoсть ветра измеряется на высoте 10 м (на урoвне рoста челoвека скoрoсть ветра ниже в 1.5-2 раза). Если метеoстанция нахoдится в гoрoде или в лесу, тo скoрoсть ветра занижена на 2-4 м/с пo сравнению с oткрытым местoм. Скoрoсть ветра над акватoриями крупных рек и oзёр, а также на вершинах хoлмoв на 2-5 м/с выше, чем в oбычных услoвиях.
Атмoсфернoе давление в разных тoчках местнoсти мoжет значительнo oтличаться oт давления на метеoстанции, в зависимoсти oт услoвий рельефа (при пoдъёме на 10 м давление пoнижается примернo на 1 мм рт.ст.).